Regional Weather Roundup
Issued by NWS Burlington, VT

Home | Current Version | Previous Version | Text Only | Print | Product List | Glossary On
Versions: 1 2 3 4 5 6 7 8 9 10 11 12 13 14 15 16 17 18 19 20 21 22 23 24 25 26 27 28 29 30 31 32 33 34 35 36 37 38 39 40 41 42 43 44 45 46 47 48 49 50
000
ASUS41 KBTV 252230
RWRBTV
VERMONT REGIONAL WEATHER ROUNDUP
NATIONAL WEATHER SERVICE BURLINGTON VT
600 PM EDT SAT MAR 25 2017

NOTE: "FAIR" INDICATES FEW OR NO CLOUDS BELOW 12,000 FEET WITH NO
SIGNIFICANT WEATHER AND/OR OBSTRUCTIONS TO VISIBILITY.

* THESE REPORTS ARE NOT UNDER NWS QUALITY CONTROL AND/OR DO NOT
  REPORT WEATHER SUCH AS PRECIPITATION AND FOG.

VTZ001>019-252300-
_____VERMONT_____


CITY           SKY/WX    TMP DP  RH WIND       PRES   REMARKS
BURLINGTON     MOSUNNY   33  20  58 NW10      30.40R WCI  25
MONTPELIER     PTSUNNY   33  27  78 NW7       30.36R WCI  27
MORRISVILLE    SUNNY     34  21  59 N9        30.36R WCI  27
ST. JOHNSBURY*   N/A     37  23  56 MISG      30.31S
LYNDONVILLE*   FAIR      33  20  59 W8        30.33R WCI  26
MIDDLEBURY*    FAIR      33  27  76 N6        30.37R WCI  28
RUTLAND*       CLOUDY    35  33  92 NW10      30.34R WCI  27
SPRINGFIELD    CLOUDY    38  31  76 VRB5      30.33R
HIGHGATE*      FAIR      32  13  46 CALM      30.42R
NEWPORT*       FAIR      32  19  58 N7        30.35R WCI  25
BENNINGTON     CLOUDY    35  32  88 W5        30.31R WCI  31
SUTTON*          N/A     34 N/A N/A MISG        N/A
ISLAND POND*     N/A     34 N/A N/A W6          N/A  WCI  29
GALLUP MILLS*    N/A     30 N/A N/A MISG        N/A
UNION VILLAGE*   N/A     36 N/A N/A MISG        N/A
MT. MANSFIELD*   N/A     21 N/A N/A NW22        N/A  WCI   5

_____LAKE CHAMPLAIN_____


CITY           SKY/WX    TMP DP  RH WIND       PRES   REMARKS
BURTON ISLAND*   N/A     32  19  59 N2          N/A
COLCHESTER RF*   N/A     34  21  60 N13         N/A  WCI  25
DIAMOND ISL*     N/A     32  25  74 N16         N/A  WCI  21

$$

NYZ007-026>031-035-052-083-087-252300-
_____NORTHERN NEW YORK_____


CITY           SKY/WX    TMP DP  RH WIND       PRES   REMARKS
PLATTSBURGH    SUNNY     33  19  56 NE9       30.41R WCI  25
SARANAC LAKE   CLOUDY    31  28  89 CALM      30.31R
MASSENA        MOSUNNY   36  27  69 CALM      30.43R
POTSDAM*       CLOUDY    36  30  80 E5        30.40R WCI  32
STARK FALLS*     N/A     34 N/A N/A N2          N/A
WATERTOWN      CLOUDY    36  31  82 NE13      30.37S WCI  27
FT DRUM        CLOUDY    35  28  77 NE8       30.35S WCI  28
ALBANY         CLOUDY    38  32  79 N5        30.35R
GLENS FALLS    CLOUDY    38  29  70 NE10      30.36R WCI  31

$$
NHZ002-005-011-252300-
_____NEW HAMPSHIRE_____


CITY           SKY/WX    TMP DP  RH WIND       PRES   REMARKS
LEBANON        CLOUDY    38  30  73 N9        30.32R WCI  31
KEENE          CLOUDY    36  34  92 N7        30.32R WCI  30
MT WASHINGTON  PTSUNNY   19 -13  23 NW44        N/A  WCI  -2
PLYMOUTH       FAIR      38  26  61 W7        30.31S
WHITEFIELD     MOSUNNY   36  21  54 W7        30.30R WCI  30

$$

_____REGIONAL QUEBEC LOCATIONS_____


CITY           SKY/WX    TMP DP  RH WIND       PRES   REMARKS
MONTREAL       MOSUNNY   32  18  55 SW10      30.41R WCI  24
QUEBEC CITY    SUNNY     34   7  32 NW9       30.36R WCI  26
SHERBROOKE     SUNNY     32   5  32 NW9       30.34R WCI  24

_____REGIONAL ONTARIO LOCATIONS_____


CITY           SKY/WX    TMP DP  RH WIND       PRES   REMARKS
OTTAWA         MOSUNNY   37  19  48 N6        30.40R

______KEY______
VSB  - VISIBILITY IN MILES
WCI  - WIND CHILL INDEX
HX   - HEAT INDEX
$$
NNNN




USA.gov is the U.S. government's official web portal to all federal, state and local government web resources and services.